When you browse on this site, cookies collect data to enhance your experience and personalize the content and advertising you see.
Visit our Privacy Policy to learn more. By continuing to use the site, you agree to this use of cookies and data.
  • In Belgium
  • List of Countries
  • For 7 days
  • Water Temperature
  • Satellite Maps
  • Weather Map
  • Weather Widgets
  • user-avatar
    Login

    Hourly Weather Razdor

    Today, 19 February, Tuesday

    Time Temperature Precipitation Wind Pressure Humidity
    00:00 -4°C° 0.1 mm 9 mps 758 mmHg 67%
    01:00 -5°C° 0.1 mm 9 mps 758 mmHg 68%
    02:00 -5°C° 0.1 mm 9 mps 759 mmHg 70%
    03:00 -6°C° 0.1 mm 9 mps 760 mmHg 71%
    04:00 -6°C° 0.1 mm 9 mps 760 mmHg 70%
    05:00 -8°C° 0.1 mm 9 mps 761 mmHg 69%
    06:00 -8°C° 0.1 mm 9 mps 762 mmHg 68%
    07:00 -8°C° 0.1 mm 9 mps 762 mmHg 66%
    08:00 -8°C° 0.1 mm 9 mps 763 mmHg 63%
    09:00 -9°C° 0.1 mm 10 mps 764 mmHg 61%
    10:00 -9°C° 0 mm 10 mps 765 mmHg 59%
    11:00 -9°C° 0 mm 10 mps 765 mmHg 56%
    12:00 -9°C° 0 mm 10 mps 766 mmHg 54%
    13:00 -9°C° 0 mm 9 mps 766 mmHg 53%
    14:00 -9°C° 0 mm 9 mps 767 mmHg 52%
    15:00 -9°C° 0 mm 9 mps 767 mmHg 52%
    16:00 -9°C° 0 mm 9 mps 768 mmHg 54%
    17:00 -10°C° 0 mm 8 mps 769 mmHg 56%
    18:00 -11°C° 0 mm 7 mps 770 mmHg 57%
    19:00 -11°C° 0 mm 7 mps 770 mmHg 57%
    20:00 -11°C° 0 mm 7 mps 771 mmHg 57%
    21:00 -10°C° 0 mm 6 mps 771 mmHg 57%
    22:00 -10°C° 0 mm 5 mps 772 mmHg 58%
    23:00 -10°C° 0 mm 5 mps 772 mmHg 58%

    Tomorrow, 20 February, Wednesday

    Time Temperature Precipitation Wind Pressure Humidity
    00:00 -10°C° 0 mm 4 mps 772 mmHg 58%
    01:00 -9°C° 0 mm 3 mps 773 mmHg 59%
    02:00 -9°C° 0 mm 3 mps 773 mmHg 59%
    03:00 -8°C° 0 mm 2 mps 773 mmHg 60%
    04:00 -8°C° 0 mm 2 mps 773 mmHg 60%
    05:00 -8°C° 0 mm 2 mps 773 mmHg 61%
    06:00 -8°C° 0 mm 2 mps 773 mmHg 61%
    07:00 -7°C° 0 mm 2 mps 773 mmHg 56%
    08:00 -6°C° 0 mm 2 mps 773 mmHg 51%
    09:00 -5°C° 0 mm 2 mps 773 mmHg 45%
    10:00 -3°C° 0 mm 2 mps 773 mmHg 40%
    11:00 -2°C° 0 mm 3 mps 773 mmHg 36%
    12:00 0°C° 0 mm 3 mps 773 mmHg 31%
    13:00 0°C° 0 mm 3 mps 772 mmHg 32%
    14:00 0°C° 0 mm 3 mps 772 mmHg 33%
    15:00 +1°C° 0 mm 3 mps 771 mmHg 35%
    16:00 -1°C° 0 mm 3 mps 771 mmHg 44%
    17:00 -2°C° 0 mm 3 mps 771 mmHg 53%
    18:00 -5°C° 0 mm 3 mps 771 mmHg 63%
    19:00 -5°C° 0 mm 3 mps 771 mmHg 65%
    20:00 -5°C° 0 mm 3 mps 770 mmHg 67%
    21:00 -5°C° 0 mm 3 mps 770 mmHg 69%
    22:00 -4°C° 0 mm 3 mps 770 mmHg 72%
    23:00 -4°C° 0 mm 3 mps 770 mmHg 75%

    Day after tomorrow, 21 February, Thursday

    Time Temperature Precipitation Wind Pressure Humidity
    00:00 -4°C° 0 mm 3 mps 769 mmHg 78%
    01:00 -4°C° 0 mm 3 mps 769 mmHg 82%
    02:00 -2°C° 0 mm 2 mps 769 mmHg 85%
    03:00 -2°C° 0 mm 2 mps 768 mmHg 88%
    04:00 -2°C° 0 mm 3 mps 768 mmHg 89%
    05:00 -2°C° 0 mm 3 mps 768 mmHg 90%
    06:00 -2°C° 0 mm 3 mps 768 mmHg 91%
    07:00 -1°C° 0 mm 3 mps 768 mmHg 89%
    08:00 +1°C° 0 mm 3 mps 768 mmHg 87%
    09:00 +2°C° 0 mm 3 mps 767 mmHg 85%
    10:00 +3°C° 0 mm 4 mps 767 mmHg 80%
    11:00 +5°C° 0 mm 5 mps 767 mmHg 75%
    12:00 +5°C° 0 mm 6 mps 766 mmHg 70%
    13:00 +6°C° 0 mm 5 mps 766 mmHg 71%
    14:00 +6°C° 0 mm 5 mps 765 mmHg 72%
    15:00 +6°C° 0 mm 5 mps 765 mmHg 73%
    16:00 +5°C° 0 mm 4 mps 764 mmHg 80%
    17:00 +3°C° 0 mm 4 mps 764 mmHg 87%
    18:00 +2°C° 0 mm 3 mps 764 mmHg 93%
    19:00 +1°C° 0 mm 3 mps 764 mmHg 94%
    20:00 0°C° 0 mm 4 mps 763 mmHg 94%
    21:00 0°C° 0 mm 4 mps 763 mmHg 94%
    22:00 0°C° 0 mm 4 mps 763 mmHg 91%
    23:00 +1°C° 0 mm 5 mps 763 mmHg 89%

    22 February, Friday

    Time Temperature Precipitation Wind Pressure Humidity
    00:00 +1°C° 0 mm 5 mps 763 mmHg 86%
    01:00 +1°C° 0 mm 5 mps 763 mmHg 82%
    02:00 +1°C° 0 mm 5 mps 763 mmHg 77%
    03:00 +1°C° 0 mm 5 mps 763 mmHg 73%
    04:00 0°C° 0 mm 5 mps 763 mmHg 76%
    05:00 0°C° 0 mm 5 mps 763 mmHg 78%
    06:00 0°C° 0 mm 5 mps 763 mmHg 81%
    07:00 -1°C° 0 mm 6 mps 764 mmHg 74%
    08:00 0°C° 0 mm 7 mps 764 mmHg 67%
    09:00 +1°C° 0 mm 8 mps 764 mmHg 60%
    10:00 +1°C° 0 mm 8 mps 764 mmHg 57%
    11:00 +2°C° 0 mm 8 mps 765 mmHg 53%
    12:00 +2°C° 0 mm 8 mps 765 mmHg 49%
    13:00 +2°C° 0 mm 8 mps 765 mmHg 48%
    14:00 +4°C° 0 mm 7 mps 764 mmHg 46%
    15:00 +4°C° 0 mm 7 mps 764 mmHg 44%
    16:00 +3°C° 0 mm 6 mps 765 mmHg 48%
    17:00 +3°C° 0 mm 4 mps 765 mmHg 52%
    18:00 +3°C° 0 mm 3 mps 765 mmHg 57%
    19:00 +4°C° 0 mm 2 mps 765 mmHg 59%
    20:00 +3°C° 0 mm 2 mps 766 mmHg 62%
    21:00 +4°C° 0 mm 1 mps 766 mmHg 64%
    22:00 +4°C° 0 mm 1 mps 766 mmHg 66%
    23:00 +4°C° 0 mm 1 mps 766 mmHg 68%

    23 February, Saturday

    Time Temperature Precipitation Wind Pressure Humidity
    00:00 +4°C° 0 mm 1 mps 766 mmHg 70%
    01:00 +3°C° 0 mm 1 mps 766 mmHg 73%
    02:00 +2°C° 0 mm 2 mps 766 mmHg 76%
    03:00 +2°C° 0 mm 2 mps 766 mmHg 80%
    04:00 +2°C° 0 mm 2 mps 766 mmHg 81%
    05:00 +2°C° 0 mm 2 mps 766 mmHg 82%
    06:00 +3°C° 0 mm 1 mps 766 mmHg 84%
    07:00 +3°C° 0 mm 2 mps 766 mmHg 81%
    08:00 +3°C° 0 mm 2 mps 766 mmHg 78%
    09:00 +3°C° 0 mm 3 mps 767 mmHg 75%
    10:00 +4°C° 0 mm 4 mps 766 mmHg 67%
    11:00 +6°C° 0 mm 4 mps 766 mmHg 59%
    12:00 +7°C° 0 mm 5 mps 766 mmHg 51%
    13:00 +7°C° 0 mm 5 mps 766 mmHg 49%
    14:00 +7°C° 0 mm 6 mps 765 mmHg 47%
    15:00 +7°C° 0 mm 6 mps 765 mmHg 45%
    16:00 +5°C° 0 mm 5 mps 765 mmHg 50%
    17:00 +3°C° 0 mm 5 mps 765 mmHg 55%
    18:00 +3°C° 0 mm 4 mps 765 mmHg 60%
    19:00 +2°C° 0 mm 5 mps 765 mmHg 62%
    20:00 +2°C° 0 mm 5 mps 765 mmHg 64%
    21:00 +1°C° 0 mm 5 mps 765 mmHg 66%
    22:00 +1°C° 0 mm 5 mps 765 mmHg 69%
    23:00 +1°C° 0 mm 4 mps 765 mmHg 71%

    24 February, Sunday

    Time Temperature Precipitation Wind Pressure Humidity
    00:00 0°C° 0 mm 4 mps 765 mmHg 74%
    01:00 0°C° 0 mm 4 mps 765 mmHg 77%
    02:00 0°C° 0 mm 3 mps 766 mmHg 80%
    03:00 0°C° 0 mm 3 mps 766 mmHg 82%
    04:00 -1°C° 0 mm 3 mps 766 mmHg 84%
    05:00 -1°C° 0 mm 3 mps 766 mmHg 85%
    06:00 -1°C° 0 mm 3 mps 766 mmHg 86%
    07:00 0°C° 0 mm 3 mps 767 mmHg 81%
    08:00 +1°C° 0 mm 3 mps 767 mmHg 76%
    09:00 +2°C° 0 mm 3 mps 767 mmHg 71%
    10:00 +3°C° 0 mm 3 mps 767 mmHg 66%
    11:00 +5°C° 0 mm 3 mps 768 mmHg 61%
    12:00 +6°C° 0 mm 4 mps 768 mmHg 56%
    13:00 +6°C° 0 mm 4 mps 768 mmHg 56%
    14:00 +6°C° 0 mm 4 mps 767 mmHg 56%
    15:00 +6°C° 0 mm 4 mps 767 mmHg 56%
    16:00 +5°C° 0 mm 3 mps 767 mmHg 60%
    17:00 +4°C° 0 mm 3 mps 768 mmHg 65%
    18:00 +3°C° 0 mm 3 mps 768 mmHg 70%
    19:00 +2°C° 0 mm 3 mps 768 mmHg 73%
    20:00 +3°C° 0 mm 2 mps 768 mmHg 76%
    21:00 +2°C° 0 mm 2 mps 768 mmHg 79%
    22:00 +2°C° 0 mm 2 mps 768 mmHg 80%
    23:00 +1°C° 0 mm 2 mps 767 mmHg 81%
    Show more